Temperature
12 12 12 12 12 11 11 11 11 11 11 11 11 11 12 12 13 13 14 14 14 14 14 14 14 14 14 14 14 14 13 13 13 13 13 13 13 14 13 14 14 14 14
12 12 12 11 11 11 11 10 10 10 10 10 10 10 11 11 12 12 12 13 13 14 14 14 14 14 14 14 14 14 14 13 13 13 13 13 13 13 13 13 13 13 13
11 11 11 11 11 11 10 10 10 10 10 10 10 10 10 10 11 11 11 12 13 13 13 13 13 13 14 14 14 14 14 14 13 13 13 13 13 13 12 12 12 12 12
11 11 11 10 10 10 10 10 10 10 10 10 9 9 9 10 10 10 10 11 12 12 13 13 13 13 13 13 14 14 14 13 13 13 13 13 12 12 12 12 11 11 12
11 11 10 10 10 10 10 9 9 9 9 9 9 9 9 9 9 9 10 10 11 11 12 12 13 13 13 13 13 14 14 13 13 13 13 12 12 12 12 11 11 11 11
11 10 10 10 10 10 9 9 9 9 9 9 9 9 9 9 9 9 9 9 10 10 11 12 12 13 13 13 13 14 13 13 13 13 13 12 12 12 12 11 11 11 10
10 10 10 10 10 9 9 9 9 8 8 9 9 9 9 9 9 9 9 9 9 10 10 11 12 12 13 13 13 13 13 13 13 13 13 13 12 12 12 11 11 11 11
10 10 10 9 9 9 9 8 8 8 8 8 8 8 9 9 9 9 9 9 9 9 10 10 11 12 12 12 13 13 13 13 12 12 13 13 13 12 12 12 11 11 11
8 8 8 8 8 8 8 8 8 8 7 7 8 8 8 8 9 9 9 9 9 9 9 10 10 11 11 12 12 12 12 12 12 12 12 12 12 11 11 11 11 11 10
6 6 6 7 7 7 7 7 7 7 7 7 7 7 8 8 8 8 8 9 9 9 9 9 10 10 11 11 12 12 12 11 11 11 11 11 11 11 11 11 11 11 10
5 5 5 5 5 5 6 6 6 6 6 6 6 7 7 8 8 8 8 8 8 9 9 9 9 10 10 11 11 12 12 11 11 11 11 11 11 11 11 11 11 11 11
4 4 4 4 4 4 5 5 5 5 5 6 6 6 7 7 8 8 8 8 8 8 8 9 9 9 10 10 11 11 11 11 11 11 11 10 11 11 11 11 11 11 11
4 4 4 4 4 4 4 4 4 5 5 5 6 6 7 7 7 8 8 8 8 8 8 8 8 9 9 10 10 11 11 11 11 10 10 10 11 11 11 11 11 11 11
4 4 4 4 4 4 4 4 4 4 5 5 5 6 6 7 7 8 8 8 8 8 8 8 8 8 9 9 10 10 11 11 11 11 11 11 11 11 11 11 11 11 11
4 4 4 4 4 4 4 4 4 4 5 5 5 6 6 7 7 7 8 8 8 8 8 8 8 8 8 9 9 10 10 10 11 11 11 10 11 11 11 11 11 11 11
4 4 4 4 4 4 4 4 4 4 5 5 5 5 6 6 7 7 7 8 8 8 7 7 7 8 8 9 9 10 10 10 10 10 10 10 10 10 10 10 10 10 11
5 4 4 4 4 4 4 4 5 5 5 5 5 5 6 6 7 7 7 8 7 7 7 7 7 7 8 8 9 10 10 10 10 10 10 10 10 10 10 10 10 10 10
5 5 5 5 5 5 5 5 5 5 5 5 5 6 6 6 7 7 7 7 7 7 7 7 7 8 8 9 9 10 10 10 10 10 10 10 10 10 9 9 9 10 10
5 5 5 5 5 5 5 5 5 5 5 5 5 6 6 6 6 7 7 7 7 6 6 7 7 8 8 9 9 10 10 10 10 10 10 10 10 10 9 9 9 9 9
6 6 6 5 5 5 5 5 5 6 6 6 6 6 6 6 6 6 6 6 6 6 7 7 7 8 9 9 10 10 10 10 10 10 10 10 10 10 10 10 10 10 10
6 6 6 6 6 6 6 6 6 6 6 6 6 6 6 6 6 6 6 6 6 7 7 7 8 8 9 9 10 10 10 10 10 10 10 10 10 10 10 10 10 10 10
6 6 6 6 6 6 6 6 6 6 6 6 6 6 6 6 6 6 6 6 6 7 7 8 9 9 10 10 10 10 10 10 10 10 10 10 10 10 10 10 10 10 10
7 6 6 6 6 6 6 6 6 7 6 6 6 6 6 6 6 6 6 7 7 7 8 8 9 10 10 10 10 10 10 10 10 10 10 10 10 10 10 10 10 10 10
7 7 7 6 6 6 6 7 7 7 7 7 6 6 6 6 6 7 7 7 8 8 9 9 10 10 11 11 11 11 10 10 10 10 10 10 10 10 11 11 11 11 11
8 7 7 7 6 6 6 6 6 7 7 7 7 7 7 7 7 7 7 8 8 9 9 10 10 11 11 11 11 11 11 10 10 10 10 10 11 11 11 11 11 11 11
8 8 7 7 7 7 6 6 6 6 6 7 7 7 7 7 7 8 8 9 9 10 10 10 11 11 11 11 11 11 11 11 11 11 11 11 11 11 11 11 11 11 11
Wind_Speed
8 8 8 8 7 7 6 7 7 6 6 6 6 7 8 8 7 6 7 7 8 8 7 7 8 6 5 4 4 4 5 5 6 3 2 3 5 9 8 10 11 11 13
10 10 10 10 9 8 9 9 8 8 7 7 6 7 7 8 8 7 8 8 8 8 8 8 8 6 6 5 4 5 5 5 5 5 3 4 5 11 10 10 8 10 12
11 10 11 10 10 10 10 10 9 9 9 8 7 7 8 8 8 8 8 8 8 8 8 9 9 8 7 5 5 5 5 5 5 5 4 4 5 10 11 10 11 9 11
11 11 11 12 12 12 11 10 10 10 10 10 9 9 8 8 8 8 8 8 7 7 8 9 9 9 9 7 6 6 5 5 6 7 7 8 8 9 10 11 10 8 8
10 11 12 12 11 11 11 11 11 11 12 11 10 10 9 8 8 8 7 7 7 7 7 8 9 11 11 9 7 6 6 6 7 8 9 8 9 11 10 8 11 10 8
11 11 12 11 11 11 11 11 10 11 11 10 11 11 11 10 11 12 9 7 7 8 8 8 8 10 11 11 10 10 10 9 10 9 8 12 11 11 10 12 13 11 6
12 12 12 11 11 11 11 9 10 10 10 10 11 11 12 12 15 15 14 8 8 8 8 7 8 8 10 6 6 5 7 11 12 10 12 12 12 14 14 13 11 7 7
12 12 12 12 11 11 10 9 9 8 8 9 11 11 11 13 16 15 14 9 7 8 7 8 8 8 9 8 6 4 3 4 8 8 10 10 13 12 11 12 11 9 9
12 11 11 11 11 10 10 9 8 7 8 8 8 10 10 12 15 15 13 6 6 7 7 7 7 9 12 13 9 7 7 6 9 13 14 15 17 16 14 12 12 13 11
13 12 11 10 10 10 9 9 8 8 9 9 10 10 10 11 13 15 13 6 6 6 5 5 7 10 14 15 10 10 10 9 11 15 15 16 14 14 13 10 11 13 11
15 14 14 12 11 10 9 8 8 8 8 9 10 9 10 11 12 15 14 7 6 5 4 4 4 9 14 15 12 9 12 12 11 12 12 10 9 8 7 7 8 11 10
16 16 15 13 12 12 8 8 8 8 8 9 8 8 7 8 10 12 15 13 9 5 4 3 3 8 12 14 11 13 16 14 10 10 10 9 8 7 6 7 8 7 7
16 15 15 14 12 10 10 10 9 8 8 8 7 7 7 6 7 12 13 13 12 6 3 2 2 7 9 10 13 18 15 10 10 10 10 7 6 7 7 6 7 8 7
15 14 12 11 11 10 9 8 8 7 7 7 7 7 6 5 5 5 5 6 8 6 4 2 3 7 6 7 12 13 9 10 11 10 8 6 5 6 7 7 7 8 7
13 12 10 9 9 8 8 7 8 8 8 8 7 6 6 5 7 10 8 7 7 7 6 3 3 4 5 6 8 7 7 9 9 7 9 8 7 6 5 5 5 5 5
11 10 8 7 7 6 6 6 9 10 11 13 10 7 6 7 8 10 12 11 12 13 8 4 5 6 6 8 10 7 6 8 9 9 10 9 8 7 5 4 4 6 7
10 10 7 6 5 5 4 4 3 1 2 6 8 8 6 6 7 10 11 11 12 13 6 6 7 7 6 7 9 8 6 8 9 10 10 9 8 7 6 6 5 6 6
10 9 8 5 5 4 4 3 1 2 2 2 2 3 5 7 8 11 12 10 6 6 5 6 6 7 6 6 7 7 8 9 9 9 9 9 8 7 7 7 6 6 5
9 7 6 5 5 4 3 1 1 3 4 4 4 4 6 8 8 9 10 5 6 5 5 5 5 5 5 6 7 8 9 9 10 9 8 8 7 7 7 7 7 9 6
8 11 8 5 4 3 2 2 3 3 4 5 5 5 5 4 4 5 4 4 4 4 4 4 4 4 5 6 8 8 9 9 9 8 7 8 7 8 8 8 8 8 6
6 8 9 5 4 4 3 2 2 3 4 4 4 5 7 5 6 6 5 4 4 4 4 3 3 3 5 6 8 9 10 9 8 7 8 7 7 7 7 8 8 8 7
5 4 4 4 4 4 3 3 2 3 4 5 4 4 6 4 5 5 5 4 4 4 3 3 3 3 5 8 9 9 9 8 8 8 8 7 7 7 7 6 7 7 7
5 4 3 2 2 4 4 3 3 4 5 5 5 5 4 3 4 5 5 5 4 3 2 2 2 2 4 6 8 9 10 9 8 9 8 8 7 7 6 6 8 8 8
4 3 2 1 1 2 2 3 3 4 4 4 4 4 4 4 5 5 5 5 4 3 2 2 1 3 6 6 6 7 7 8 8 8 11 9 8 7 7 7 8 9 9
4 2 1 1 0 1 2 2 3 3 4 3 3 3 4 4 5 4 4 3 3 2 2 1 1 2 5 8 9 7 11 13 11 9 7 8 8 8 8 8 7 6 6
5 3 1 1 0 1 2 2 2 3 3 3 3 3 4 4 4 3 3 2 2 1 1 1 1 2 5 7 10 12 13 14 13 13 8 7 8 7 7 6 8 7 7
Wind_Direction
253 253 254 256 256 260 266 269 273 281 292 300 306 310 310 305 292 265 245 232 227 232 233 231 236 234 235 235 231 224 216 206 225 225 177 145 134 131 122 114 113 108 109
254 253 254 256 255 254 257 262 264 269 272 274 281 289 295 299 300 290 275 259 239 231 230 228 234 233 229 230 228 230 225 210 206 202 171 152 139 140 131 123 117 111 108
256 254 256 258 257 254 253 255 256 258 263 267 266 269 275 281 288 290 285 276 256 240 228 222 226 220 227 227 230 235 233 221 202 185 169 150 139 140 132 121 114 109 106
254 251 250 252 252 253 253 251 251 250 252 257 256 256 260 266 274 280 282 282 273 258 238 226 219 212 218 221 230 234 229 218 196 182 165 154 146 142 135 132 123 115 111
246 244 244 245 245 247 250 251 251 250 251 249 250 253 253 257 262 263 265 276 279 272 257 237 223 215 212 212 221 226 214 207 190 178 166 155 152 152 146 140 132 119 100
239 237 236 235 237 239 243 247 250 251 251 248 246 248 251 255 256 258 261 265 269 267 260 246 228 212 210 214 225 226 213 200 188 176 168 163 159 152 142 144 140 135 121
242 240 233 228 227 229 235 237 241 247 250 250 249 246 246 247 248 254 260 256 258 262 256 242 229 207 191 197 211 215 212 203 189 174 166 162 158 155 149 148 149 137 130
258 251 240 229 226 224 223 226 232 236 241 246 248 245 242 245 242 244 249 249 252 258 257 240 224 198 190 183 177 159 139 153 170 164 156 150 148 147 144 144 137 115 109
285 273 259 245 234 224 220 223 227 233 241 243 243 240 237 242 239 237 236 232 243 256 261 246 222 201 191 177 162 147 128 113 110 119 122 124 127 129 136 136 135 136 139
300 293 280 264 249 235 226 226 228 230 238 244 245 237 233 235 235 231 225 214 233 250 259 246 225 207 188 175 164 155 145 136 130 121 117 118 125 131 137 145 148 149 147
300 297 292 279 264 250 239 237 237 238 239 240 242 239 232 228 227 223 217 203 213 230 242 240 222 203 190 179 166 159 151 141 132 127 123 121 121 128 140 149 153 156 155
296 292 288 281 273 271 252 244 242 240 240 239 237 238 233 226 221 221 217 211 202 203 222 229 213 190 189 180 164 150 143 135 130 128 127 128 131 134 139 145 151 155 162
295 291 287 282 274 265 257 252 250 241 237 235 227 228 228 222 224 224 218 215 209 197 198 193 189 182 183 179 163 152 147 140 138 137 137 135 131 130 122 111 107 110 92
299 295 290 284 277 269 260 251 247 241 232 226 221 220 217 214 216 208 197 198 195 187 174 144 149 171 179 170 161 158 152 149 147 144 137 128 116 114 122 124 125 120 102
305 301 296 286 278 272 263 252 245 238 226 214 211 201 193 206 216 195 178 182 184 182 160 147 145 156 167 164 161 155 143 140 134 130 136 134 128 122 120 117 117 109 116
311 309 303 296 288 278 274 274 251 239 233 223 212 194 198 203 200 189 186 183 179 168 156 162 161 161 172 169 161 150 142 145 143 141 143 141 140 137 131 118 113 124 130
313 313 310 305 298 293 285 279 285 291 216 207 200 195 187 175 171 170 173 168 170 164 159 160 158 162 170 164 159 150 146 148 146 148 150 149 145 139 135 132 126 126 130
318 319 321 310 305 299 294 284 237 153 118 85 97 151 154 146 150 151 147 140 156 168 155 153 152 152 156 157 154 146 142 146 148 150 150 150 146 143 143 144 144 143 140
323 318 317 318 318 314 314 329 108 129 125 119 102 83 100 113 122 141 151 148 154 154 145 143 144 144 151 157 152 145 145 149 151 149 151 152 150 146 150 157 160 159 145
327 335 343 336 340 351 15 57 85 112 122 127 132 133 133 123 132 148 157 137 139 140 139 136 142 153 159 155 147 142 143 146 148 147 152 154 153 152 154 157 162 163 163
330 340 354 356 359 8 36 69 97 115 126 132 141 155 155 146 150 155 158 151 146 145 147 155 166 166 159 152 146 146 147 151 153 151 153 154 152 150 152 156 161 162 159
327 334 344 354 7 23 39 60 94 111 126 129 130 141 158 137 145 150 150 149 146 142 150 161 168 172 167 158 154 152 152 153 155 154 154 154 153 153 151 151 153 156 161
322 327 337 350 7 30 42 53 82 103 113 124 130 132 146 144 146 147 148 149 148 145 144 143 149 156 156 155 157 158 159 162 162 158 154 154 156 161 159 159 160 157 166
319 322 333 336 7 35 47 56 76 97 108 116 124 128 134 135 138 141 143 148 148 137 133 138 155 152 143 148 152 153 154 155 153 159 156 155 159 165 168 166 166 170 175
332 329 342 2 38 90 100 97 96 101 110 118 125 125 123 120 122 130 135 140 139 131 147 165 151 137 148 155 160 158 159 159 160 158 150 153 159 164 165 168 169 169 172
353 354 353 20 102 138 138 140 140 136 134 132 126 125 126 128 133 136 139 149 155 145 165 201 188 149 156 159 159 159 163 168 170 167 158 156 158 164 164 167 173 177 178
Height
1477 1475 1472 1469 1467 1465 1462 1460 1457 1455 1453 1451 1450 1449 1448 1448 1448 1449 1450 1451 1452 1452 1453 1452 1451 1451 1450 1449 1449 1449 1449 1449 1449 1451 1453 1454 1456 1458 1460 1462 1465 1467 1470
1471 1468 1465 1463 1461 1458 1456 1454 1452 1450 1448 1446 1445 1443 1443 1442 1441 1441 1442 1443 1444 1445 1446 1446 1446 1446 1445 1444 1444 1444 1444 1444 1445 1446 1448 1451 1453 1456 1458 1461 1464 1467 1469
1463 1460 1457 1455 1453 1451 1449 1448 1446 1444 1443 1441 1440 1438 1437 1436 1436 1435 1435 1435 1436 1438 1439 1440 1440 1441 1439 1439 1439 1438 1438 1439 1439 1441 1444 1447 1450 1453 1457 1460 1463 1466 1469
1455 1452 1449 1447 1445 1443 1442 1440 1439 1437 1436 1435 1434 1432 1431 1430 1429 1429 1429 1429 1429 1430 1432 1433 1434 1434 1434 1434 1433 1433 1433 1433 1434 1436 1439 1443 1447 1450 1454 1458 1461 1465 1468
1446 1443 1441 1439 1437 1435 1433 1432 1430 1429 1428 1428 1427 1426 1425 1424 1423 1423 1423 1423 1423 1423 1424 1425 1427 1428 1428 1428 1428 1427 1427 1427 1429 1431 1434 1438 1443 1447 1451 1456 1459 1464 1468
1436 1433 1431 1429 1428 1426 1425 1423 1422 1421 1420 1420 1419 1419 1419 1418 1418 1418 1417 1417 1417 1417 1417 1418 1420 1421 1422 1422 1422 1422 1422 1422 1423 1426 1429 1433 1438 1443 1448 1453 1457 1461 1467
1425 1423 1421 1419 1417 1416 1415 1414 1413 1413 1412 1411 1411 1411 1411 1411 1412 1412 1412 1411 1411 1411 1411 1411 1412 1414 1415 1416 1417 1417 1417 1417 1419 1421 1425 1429 1434 1439 1444 1451 1456 1460 1464
1414 1412 1410 1408 1406 1406 1405 1405 1404 1404 1404 1403 1403 1403 1403 1404 1405 1406 1406 1405 1405 1405 1404 1405 1406 1407 1409 1411 1412 1412 1412 1413 1415 1419 1423 1427 1432 1438 1444 1449 1455 1462 1468
1403 1400 1398 1396 1395 1394 1393 1394 1394 1394 1394 1394 1394 1395 1395 1396 1398 1399 1400 1400 1399 1398 1398 1398 1399 1402 1404 1406 1408 1409 1409 1411 1414 1417 1422 1427 1432 1438 1444 1450 1456 1461 1467
1392 1388 1386 1384 1382 1381 1381 1382 1383 1383 1383 1384 1385 1386 1387 1388 1390 1392 1393 1393 1393 1393 1393 1393 1394 1396 1399 1402 1404 1406 1407 1409 1412 1416 1421 1427 1433 1439 1446 1451 1456 1460 1465
1381 1377 1373 1371 1370 1369 1369 1370 1371 1372 1372 1374 1375 1376 1378 1380 1382 1384 1386 1387 1388 1388 1388 1388 1388 1391 1394 1398 1402 1404 1406 1409 1412 1416 1422 1428 1434 1440 1446 1452 1457 1462 1466
1371 1366 1362 1360 1359 1358 1358 1358 1360 1361 1362 1364 1366 1368 1370 1372 1375 1377 1379 1381 1382 1383 1383 1383 1384 1386 1390 1395 1400 1403 1407 1410 1413 1418 1423 1429 1434 1441 1447 1452 1458 1463 1467
1362 1357 1353 1350 1348 1347 1347 1348 1349 1350 1352 1354 1357 1359 1362 1365 1368 1370 1372 1374 1376 1377 1378 1379 1379 1381 1386 1392 1397 1402 1406 1410 1414 1419 1424 1430 1436 1441 1447 1452 1458 1462 1467
1355 1350 1346 1342 1340 1339 1338 1339 1340 1341 1343 1346 1349 1352 1355 1359 1361 1364 1366 1368 1370 1372 1374 1375 1376 1378 1382 1388 1395 1401 1406 1410 1415 1420 1425 1431 1437 1442 1447 1452 1456 1461 1465
1351 1345 1341 1337 1334 1333 1332 1332 1333 1334 1337 1340 1343 1347 1350 1353 1356 1359 1361 1364 1365 1368 1369 1371 1372 1375 1379 1385 1393 1399 1405 1411 1416 1421 1426 1431 1437 1442 1447 1451 1455 1459 1463
1348 1342 1338 1334 1331 1329 1328 1328 1329 1330 1332 1336 1339 1343 1346 1350 1353 1355 1358 1360 1362 1363 1366 1367 1369 1373 1377 1383 1390 1397 1404 1410 1416 1422 1427 1432 1437 1441 1446 1450 1454 1459 1462
1347 1341 1337 1333 1330 1329 1327 1327 1327 1329 1330 1333 1337 1340 1344 1347 1350 1353 1355 1357 1358 1360 1362 1365 1368 1371 1377 1382 1389 1397 1404 1410 1416 1422 1427 1432 1437 1441 1445 1449 1453 1457 1462
1347 1342 1337 1334 1331 1329 1328 1327 1327 1328 1330 1333 1336 1340 1343 1346 1349 1351 1353 1354 1356 1357 1360 1363 1367 1371 1377 1383 1391 1398 1405 1411 1416 1422 1427 1432 1436 1440 1444 1448 1452 1456 1460
1347 1343 1338 1335 1332 1330 1329 1329 1329 1330 1332 1334 1337 1340 1342 1345 1348 1350 1352 1353 1355 1357 1360 1364 1368 1373 1380 1386 1393 1399 1405 1411 1416 1422 1427 1431 1436 1440 1444 1449 1453 1457 1460
1348 1344 1340 1337 1335 1333 1332 1332 1332 1333 1335 1336 1338 1341 1343 1345 1347 1349 1351 1354 1356 1359 1363 1367 1372 1377 1383 1389 1395 1401 1407 1412 1417 1422 1427 1431 1436 1440 1444 1449 1453 1456 1460
1349 1346 1343 1340 1338 1336 1335 1335 1336 1336 1338 1339 1341 1342 1345 1346 1349 1351 1354 1356 1360 1363 1367 1372 1376 1381 1386 1391 1397 1402 1408 1413 1418 1422 1427 1432 1436 1440 1445 1449 1453 1456 1460
1350 1348 1345 1343 1341 1340 1339 1339 1339 1340 1341 1342 1343 1345 1347 1349 1351 1353 1356 1360 1364 1368 1372 1376 1380 1384 1388 1393 1398 1403 1408 1413 1418 1423 1427 1432 1436 1440 1445 1449 1452 1456 1459
1351 1349 1347 1346 1345 1344 1343 1343 1343 1344 1344 1345 1347 1348 1349 1351 1353 1356 1359 1363 1367 1372 1376 1380 1383 1387 1391 1396 1400 1404 1409 1413 1418 1423 1427 1432 1436 1440 1444 1448 1451 1454 1458
1352 1350 1348 1347 1347 1346 1346 1346 1347 1347 1348 1349 1350 1351 1353 1354 1357 1360 1363 1367 1371 1375 1379 1383 1387 1390 1394 1398 1402 1406 1411 1415 1419 1424 1428 1432 1436 1440 1444 1447 1450 1453 1456
1354 1351 1349 1348 1347 1347 1348 1349 1349 1350 1351 1352 1353 1355 1356 1358 1361 1364 1368 1371 1376 1380 1383 1387 1390 1394 1397 1401 1405 1409 1412 1417 1421 1425 1429 1433 1437 1440 1443 1446 1449 1452 1455
1358 1355 1352 1350 1349 1349 1349 1349 1351 1352 1353 1355 1356 1358 1360 1363 1366 1369 1372 1376 1380 1384 1387 1391 1394 1397 1400 1404 1408 1411 1415 1418 1422 1426 1430 1433 1436 1439 1442 1445 1448 1450 1453